Location: Unspecified
(43.4680°N, 87.1740°E)
Time: 02:05:14
(UTC+00:00)

STARLINK-1096 - Pass Details

Date: 17 January 2020
Orbit: 344 x 355 km, 53.0° (Epoch: 22 February)

Event Time Altitude Azimuth Distance (km) Brightness Sun altitude
Rises 12:58:42 0° 251° (WSW) 2,160 8.2 -20.8°
Reaches altitude 10° 13:00:47 10° 259° (WSW) 1,320 6.8 -21.1°
Enters shadow 13:03:05 36° 302° (WNW) 577 4.1 -21.5°
